Regional Weather Roundup
Issued by NWS

Home | Current Version | Previous Version | Graphics & Text | Print | Product List | Glossary Off
Versions: 1 2 3 4 5 6 7 8 9 10 11 12 13 14 15 16 17 18 19 20 21 22 23 24 25 26 27 28 29 30 31 32 33 34 35 36 37 38 39 40 41 42 43 44 45 46 47 48 49 50

000
ASUS43 KMKX 041200
RWRWI

WISCONSIN REGIONAL WEATHER ROUNDUP
NATIONAL WEATHER SERVICE MILWAUKEE/SULLIVAN WI
700 AM CDT WED MAY 04 2016

NOTE: "FAIR" INDICATES FEW OR NO CLOUDS BELOW 12,000 FEET WITH NO
SIGNIFICANT WEATHER AND/OR OBSTRUCTIONS TO VISIBILITY.

WIZ001-002-006>008-014>016-023>028-041300-
NORTHWEST WISCONSIN

CITY           SKY/WX    TMP DP  RH WIND       PRES   REMARKS
SUPERIOR ARPT  SUNNY     43  33  68 N7        29.95R
ASHLAND        SUNNY     43  34  70 NW8       29.91R
6HR MIN TEMP:  32; 6HR MAX TEMP:  43;

HAYWARD        SUNNY     34  31  88 CALM      29.91R
6HR MIN TEMP:  30; 6HR MAX TEMP:  45;

SIREN          SUNNY     37  31  79 NW5       29.94R WCI  33
CUMBERLAND     SUNNY     39  32  75 N9        29.92R WCI  33
RICE LAKE      SUNNY     42  32  68 NW3       29.92R
CHETEK         SUNNY     42  35  75 CALM      29.90S
LADYSMITH      SUNNY     40  34  78 NW8       29.89R WCI  35
EAU CLAIRE     NOT AVBL
MENOMONIE      SUNNY     44  33  67 NW7       29.91R
NEW RICHMOND   SUNNY     42  32  68 NW8       29.94R
OSCEOLA        SUNNY     42  33  70 NW3       29.97R
$$

WIZ003>005-009-010-017-018-041300-
NORTH CENTRAL WISCONSIN

CITY           SKY/WX    TMP DP  RH WIND       PRES   REMARKS
MANITOWISH WTR SUNNY     38  35  87 N6        29.83R WCI  34
ARBOR VITAE    MOSUNNY   39  34  82 N8        29.83R WCI  34
WOODRUFF       MOSUNNY   39  34  82 N8        29.83R WCI  34
RHINELANDER    PTSUNNY   40  33  76 N10G18    29.82R WCI  33
6HR MIN TEMP:  39; 6HR MAX TEMP:  42; 6HR PCP: TRACE;

EAGLE RIVER    CLOUDY    37  32  81 N10G18    29.81R WCI  30
LAND O LAKES   CLOUDY    38  34  85 N10G18    29.83R WCI  31
PHILLIPS       SUNNY     38  33  82 N6        29.84R WCI  34
TOMAHAWK       PTSUNNY   39  35  85 NW6       29.82S WCI  35
MEDFORD        SUNNY     38  35  91 NW8       29.83R WCI  32
MERRILL        PTSUNNY   38  37  93 NW6       29.82R WCI  34
$$

WIZ029-030-035-036-043>047-041300-
CENTRAL WISCONSIN

CITY           SKY/WX    TMP DP  RH WIND       PRES   REMARKS
WAUSAU         PTSUNNY   42  36  79 NW7       29.80R
6HR MIN TEMP:  41; 6HR MAX TEMP:  45;

MOSINEE        MOSUNNY   39  37  93 NW12      29.82R WCI  32
MARSHFIELD     MOSUNNY   41  36  82 NW10      29.83R
6HR MIN TEMP:  38; 6HR MAX TEMP:  46; 6HR PCP: TRACE;

STEVENS POINT  PTSUNNY   39  35  84 NW6       29.82R
WAUPACA        PTSUNNY   43  37  79 NW7       29.80R
WAUTOMA        MOSUNNY   43  36  76 NW10      29.81R
6HR MIN TEMP:  41; 6HR MAX TEMP:  46; 6HR PCP:  0.01;

WISC RAPIDS    CLOUDY    42  35  76 N10       29.84R
6HR MIN TEMP:  40; 6HR MAX TEMP:  44;

CAMP DOUGLAS   NOT AVBL
$$

WIZ011>013-019>022-031-037>040-048>050-041300-
NORTHEAST WISCONSIN

CITY           SKY/WX    TMP DP  RH WIND       PRES   REMARKS
ANTIGO         CLOUDY    39  35  85 N17G23    29.78S WCI  29
SHAWANO        CLOUDY    42  37  82 CALM      29.78R
OCONTO         CLOUDY    42  38  84 N6        29.75S
STURGEON BAY   CLOUDY    43  36  75 N16G23    29.76R
6HR MIN TEMP:  39; 6HR MAX TEMP:  45;

GREEN BAY      CLOUDY    43  36  76 N12       29.76R
6HR MIN TEMP:  41; 6HR MAX TEMP:  48; 6HR PCP: TRACE;

MANITOWOC      MOSUNNY   45  37  76 N18G28    29.73R
APPLETON       PTSUNNY   41  34  75 N10G17    29.76R
CLINTONVILLE   CLOUDY    41  36  81 NW8       29.78S
OSHKOSH        CLOUDY    43  36  76 N12       29.77S
6HR MIN TEMP:  41; 6HR MAX TEMP:  47;

$$

WIZ032>034-041-042-053>061-041300-
SOUTHWEST WISCONSIN

CITY           SKY/WX    TMP DP  RH WIND       PRES   REMARKS
LA CROSSE      SUNNY     46  38  73 N12       29.88R
6HR MIN TEMP:  43; 6HR MAX TEMP:  49;

SPARTA         SUNNY     39  38  95 CALM      29.87R
VIROQUA        SUNNY     42  38  88 N12       29.84R
BOSCOBEL       MOSUNNY   47  40  76 N9        29.85R
6HR MIN TEMP:  42; 6HR MAX TEMP:  48;

PRAIRIE DU CHI PTSUNNY   47  39  74 NW8       29.85R
PLATTEVILLE    MOSUNNY   45  43  93 N14       29.80R
$$

WIZ056-057-062-063-064-067-068-041300-
SOUTH CENTRAL WISCONSIN

CITY           SKY/WX    TMP DP  RH WIND       PRES   REMARKS
REEDSBURG      MOSUNNY   43  39  86 N9        29.81R
BARABOO/DELLS  MOSUNNY   43  37  80 N9        29.81R
LONE ROCK      NOT AVBL
MINERAL POINT  MOSUNNY   45  43  93 N8        29.80R
MADISON        MOSUNNY   44  39  82 N13G23    29.78R
6HR MIN TEMP:  43; 6HR MAX TEMP:  47;

MIDDLETON      SUNNY     45  40  81 N15       29.79R
WATERTOWN      MOSUNNY   42  39  90 N15G21    29.75R
MONROE         MOSUNNY   45  41  87 N10G20    29.76R
JANESVILLE     MOSUNNY   46  45  93 N12       29.75R
$$

WIZ051-052-058>065-066-070>072-041300-
SOUTHEAST WISCONSIN

CITY           SKY/WX    TMP DP  RH WIND       PRES   REMARKS
MILWAUKEE      PTSUNNY   46  38  73 NW18G24   29.72R
6HR MIN TEMP:  43; 6HR MAX TEMP:  50; 6HR PCP: TRACE;

WAUKESHA       NOT AVBL
MILWAUKEE/TIMM MOSUNNY   43  36  75 N16G22    29.73R
RACINE         CLOUDY    45  38  76 N15G26    29.73R
6HR MIN TEMP:  43; 6HR MAX TEMP:  50; 6HR PCP:  0.04;

BURLINGTON     MOSUNNY   44  40  87 N9        29.72R
KENOSHA        CLOUDY    46  41  82 N7        29.71R
6HR MIN TEMP:  44; 6HR MAX TEMP:  52; 6HR PCP:  0.13;

FOND DU LAC    CLOUDY    43  36  76 N15G24    29.77R
6HR MIN TEMP:  43; 6HR MAX TEMP:  48;

SHEBOYGAN      CLOUDY    43  36  76 N16G22    29.74R
6HR MIN TEMP:  41; 6HR MAX TEMP:  49;

WEST BEND      PTSUNNY   41  36  81 N17       29.74R
JUNEAU         MOSUNNY   40  36  84 N14       29.77R WCI  33
$$

LSZ147-162-041300-
LAKE SUPERIOR

STATION/POSITION TIME  TEMP    WIND        PRES    WAVE
                       AIR SEA DIR/SP/G            HT/PER
                 (UTC) (F)     (DEG/KT/KT) (MB)    (FT/S)
W MID LAKE BUOY  1050   39 37  350/  6/  6 1012.2R   1/ 4
DEVILS ISLAND    1100   43      30/ 16/ 17 1012.9R
SAXON HARBOR     1100   42     340/ 10/ 12 1011.5R
$$

LMZ867-665-643>646-041300-
LAKE MICHIGAN

STATION/POSITION TIME  TEMP    WIND        PRES    WAVE
                       AIR SEA DIR/SP/G            HT/PER
                 (UTC) (F)     (DEG/KT/KT) (MB)    (FT/S)
CHAMBERS ISLAND  1100   42     340/ 16/ 20 1007.1R
N MID LAKE BUOY  1050   40 38  320/ 21/ 27 1005.0R   4/ 5
NORTHPORT PIER   1100   41     340/ 23     1006.8R
ALGOMA LAKESHORE 1130          300/ 16/ 21   N/A
KEWAUNEE LAKESHO 1100   42     330/ 11/ 18 1005.8R
SHEBOYGAN LAKESH 1100   43     340/ 15/ 18 1006.6R
PORT WASHINGTON  1140   45     330/ 10/ 20 1007.5R
S MID LAKE BUOY  1050   42 41  360/ 23/ 29 1003.4R   3/ 4
KENOSHA   LAKESH 1100   45     360/ 15/ 19 1005.8R
$$

TC  - TEMPERATURE IN CELSIUS
VSB - VISIBILITY IN STATUTE MILES
WCI - WIND CHILL INDEX
HX  - HEAT INDEX




USA.gov is the U.S. government's official web portal to all federal, state and local government web resources and services.